Regional Weather Roundup
Issued by NWS San Angelo, TX

Home | Current Version | Previous Version | Text Only | Print | Product List | Glossary On
Versions: 1 2 3 4 5 6 7 8 9 10 11 12 13 14 15 16 17 18 19 20 21 22 23 24 25 26 27 28 29 30 31 32 33 34 35 36 37 38 39 40 41 42 43 44 45 46 47 48 49 50
000
ASUS44 KSJT 270202
RWRSJT
WEST CENTRAL TEXAS REGIONAL WEATHER ROUNDUP
NATIONAL WEATHER SERVICE SAN ANGELO TX
800 PM CST MON JAN 26 2015

NOTE: "FAIR" INDICATES FEW OR NO CLOUDS BELOW 12,000 FEET WITH NO
SIGNIFICANT WEATHER AND/OR OBSTRUCTIONS TO VISIBILITY.

TXZ049-054-064>066-071>073-076>078-098-099-113-114-127-128-139-140-
154-155-168>170-270300
...LOCATIONS ACROSS WEST CENTRAL TEXAS...

CITY           SKY/WX    TMP DP  RH WIND       PRES   REMARKS
SAN ANGELO     MOCLDY    52  38  58 SW8       30.21R
ABILENE        PTCLDY    55  36  48 SW7       30.16F
DYESS AFB      PTCLDY    53  38  56 SW10      30.16S
JUNCTION       MOCLDY    50  36  58 W5        30.22R
SWEETWATER     NOT AVBL
BROWNWOOD      MOCLDY    55  39  54 S5        30.18S
COLEMAN        NOT AVBL
SONORA         NOT AVBL
OZONA          NOT AVBL
BRADY          NOT AVBL
$$

TEXAS PANHANDLE/OKLAHOMA PANHANDLE

CITY           SKY/WX    TMP DP  RH WIND       PRES   REMARKS
AMARILLO       CLEAR     50  34  54 W7        30.23R
BORGER         CLEAR     59  31  34 SW6       30.19R
CANADIAN       CLEAR     54  33  45 CALM      30.15R
DALHART        CLEAR     48  36  63 W9        30.25R
DUMAS          NOT AVBL
GUYMON         NOT AVBL
HEREFORD       NOT AVBL
PAMPA          NOT AVBL
PERRYTON       NOT AVBL
$$

SOUTHERN PANHANDLE/SOUTH PLAINS/ROLLING PLAINS

CITY           SKY/WX    TMP DP  RH WIND       PRES   REMARKS
LUBBOCK        PTCLDY    51  35  54 NW5       30.21R
SNYDER         NOT AVBL
CHILDRESS      CLEAR     58  33  39 W5        30.14R
SEMINOLE       NOT AVBL
$$

PERMIAN BASIN

CITY           SKY/WX    TMP DP  RH WIND       PRES   REMARKS
MIDLAND        MOCLDY    51  34  52 SW7       30.24R
ODESSA         MOCLDY    51  33  50 W6        30.25R
WINK           MOCLDY    50  31  48 SW7       30.23S
$$

FAR WEST/SOUTHWEST MOUNTAINS/TRANS PECOS

CITY           SKY/WX    TMP DP  RH WIND       PRES   REMARKS
ALPINE         NOT AVBL
DRYDEN         NOT AVBL
EL PASO        CLOUDY    55  29  36 N9        30.27R
FORT STOCKTON  CLOUDY    51  40  65 S7        30.27S
GUADALUPE PASS NOT AVBL
MARFA          CLOUDY    45  34  65 CALM      30.34R
PECOS          NOT AVBL
$$

DALLAS/FORT WORTH METROPLEX

CITY           SKY/WX    TMP DP  RH WIND       PRES   REMARKS
DFW AIRPORT    PTCLDY    62  36  37 SW8       30.06S
FTW MEACHAM    CLEAR     61  38  42 W5        30.07S
DAL-EXECUTIVE  CLEAR     60  36  40 SW5       30.07S
GRAND PRAIRIE  CLEAR     63  39  41 SW3       30.09S
ADDISON        CLEAR     61  36  39 CALM      30.07S
MESQUITE       CLEAR     54  39  58 S5        30.08R
LANCASTER      CLEAR     55  37  50 SW3       30.09S
$$

NORTH CENTRAL TEXAS

CITY           SKY/WX    TMP DP  RH WIND       PRES   REMARKS
SHRMAN/DENISON CLEAR     57  42  56 S3        30.06F
GAINESVILLE    NOT AVBL
BRIDGEPORT     CLEAR     58  36  44 SW5       30.10S
DENTON         CLEAR     58  38  47 SW6       30.06S
WAXAHACHIE     PTCLDY    58  40  50 SW3       30.10S
GRANBURY       NOT AVBL
$$

WESTERN NORTH TEXAS

CITY           SKY/WX    TMP DP  RH WIND       PRES   REMARKS
WICHITA FALLS  CLEAR     61  40  45 W9        30.06S
VERNON         NOT AVBL
BRECKENRIDGE   NOT AVBL
COMANCHE       MOCLDY    60  40  47 SW10      30.16S
$$

CENTRAL AND SOUTH CENTRAL TEXAS

CITY           SKY/WX    TMP DP  RH WIND       PRES   REMARKS
AUSTIN/BERGSTM MOCLDY    57  45  64 SW5       30.17S
WACO           PTCLDY    54  40  59 SW9       30.12R
HILLSBORO      NOT AVBL
TEMPLE         MOCLDY    59  34  38 SW9       30.13S
KILLEEN-GRAY   MOCLDY    63  33  32 W10       30.15S
FORT HOOD      MOCLDY    61  34  36 MISG      30.14S
GEORGETOWN     CLEAR     57  37  47 W6        30.16R
LAGO VISTA     FAIR      62  35  35 W5        30.18S
SAN MARCOS     MOCLDY    55  45  67 W3        30.18S
NEW BRAUNFELS  MOCLDY    58  42  55 W6        30.18R
RANDOLPH AFB   MOCLDY    62  35  37 W6        30.20R
SAN ANTONIO    CLOUDY    64  37  36 W8        30.20R
STINSON        CLOUDY    58  40  51 SW6       30.19R
PLEASANTON     NOT AVBL
LA GRANGE      NOT AVBL
GIDDINGS       NOT AVBL
$$

EAST TEXAS

CITY           SKY/WX    TMP DP  RH WIND       PRES   REMARKS
PARIS          CLEAR     54  37  54 SW7       30.05F
CLARKSVILLE    NOT AVBL
TYLER          CLEAR     55  37  50 SW7       30.08F
LONGVIEW       CLEAR     58  34  40 SW5       30.08R
PALESTINE      PTCLDY    51  40  65 S3        30.11F
NACOGDOCHES    CLEAR     54  36  50 SW5       30.11S
$$

TEXAS HILL COUNTRY AND EDWARDS PLATEAU

CITY           SKY/WX    TMP DP  RH WIND       PRES   REMARKS
LLANO          NOT AVBL
HORSESHOE BAY  FAIR      61  33  35 SW5       30.18S
KERRVILLE      NOT AVBL
FREDERICKSBRG  NOT AVBL
ROCKSPRINGS    NOT AVBL
HONDO          CLOUDY    57  39  51 W6        30.23R
UVALDE         NOT AVBL
DEL RIO        MOCLDY    53  41  63 CALM      30.22R
$$

SOUTHEAST TEXAS

CITY           SKY/WX    TMP DP  RH WIND       PRES   REMARKS
COLLEGE STN    MOCLDY    56  43  61 S6        30.15R
CALDWELL       NOT AVBL
CROCKETT       NOT AVBL
BRENHAM        NOT AVBL
HUNTSVILLE     PTCLDY    54  39  57 SW5       30.13S
CONROE         PTCLDY    47  43  86 CALM      30.16R
HOUSTON BUSH   MOCLDY    52  40  63 SW3       30.16R
HOUSTON HOBBY  MOCLDY    57  40  52 SW6       30.16S
PERLAND        MOCLDY    54  43  66 S7        30.18R
WHARTON        NOT AVBL
$$

THE UPPER TEXAS COAST

CITY           SKY/WX    TMP DP  RH WIND       PRES   REMARKS
ORANGE         CLEAR     47  42  80 CALM      30.16R
PORT ARTHUR    PTCLDY    51  40  65 SW3       30.14S
GALVESTON      MOCLDY    55  49  80 SW7       30.18S
ANGLETON       PTCLDY    56  44  64 SW7       30.18R
BAY CITY       PTCLDY    53  49  86 SW3       30.19S
$$

TEXAS COASTAL BEND, RIO GRANDE PLAINS DEEP SOUTH TEXAS

CITY           SKY/WX    TMP DP  RH WIND       PRES   REMARKS
VICTORIA       CLOUDY    58  43  57 SW6       30.20R
BEEVILLE       FAIR      64  35  33 NW6       30.20S
ROCKPORT       MOCLDY    56  42  59 S5        30.20S
PORT ARANSAS   NOT AVBL
PORT LAVACA    CLOUDY    55  49  81 SW6       30.20S
CORPUS CHRISTI CLOUDY    56  45  66 S8        30.22R
KINGSVILLE NAS MOCLDY    56  46  69 S7        30.22R
COTULLA        CLOUDY    62  38  40 CALM      30.22R
LAREDO         CLEAR     64  37  36 CALM      30.24R
BROWNSVILLE    CLOUDY    57  47  69 SE5       30.24R
PORT ISABEL    CLOUDY    60  51  72 S7        30.23R
HEBBRONVILLE   NOT AVBL
MCALLEN        CLOUDY    64  42  44 SE5       30.24R
WESLACO        NOT AVBL
FALFURRIAS     CLOUDY    60  38  43 E3        30.22R
EDINBURG       NOT AVBL
$$



USA.gov is the U.S. government's official web portal to all federal, state and local government web resources and services.